CZ-3B DEB, 40165

Orbit data source: Space-Track

CZ-3B DEB, 40165 is space debris in HEO originally from a launch on Sat, 04 Sep 2010 UTC launched from the Xichang Space Center, China (XSC). Debris objects in space refer to the collection of defunct objects orbiting the Earth. Examples of debris include non-operational satellites, rocket bodies, and fragments generated from explosions, collisions, or faulty payload assembly.

Loading next visibility...
Identifier
40165, 2010-042S
Orbit
HEO
Country
Flag of CNCN / PRC
Related business
Manufacturer
CALT
Mission
Spacecraft
Bus & Motor
Unknown
Mass
Unknown
Launch date (UTC)
2010-09-04 (15 years ago)
Launch vehicle
Unknown
Launch site
Xichang Space Center, China (XSC)
Object type
Payload
Rocket body
Debris
Shape & HBR
Unknown shape, 0.2 m
Radar Cross Section
Medium (>0.1 m² and <1 m²)

Expand to show TLE details & history
Last TLE update: 4 days ago

TLE from 4 days ago
0 CZ-3B DEB
1 40165U 10042S   25336.83549883  .00000354  00000-0  11315-1 0  9994
2 40165  27.0309 167.1034 7428372  98.2886 358.7636  1.92976134100073
Epoch: 2025-12-02T20:03Z
TLE epoch observation values (Epoch: 2025-12-02T20:03:07.098Z)
Latitude
27.07911°
Longitude
-119.83856°
Altitude
672.299 km
Speed
9.925 km/s
True Right ascension
16h 51m 25s
True Declination
26° 56' 18"
Sunlit
Object was in daylight at epoch
Visualization orbit readout
Latitude
Unknown
Longitude
Unknown
Altitude
Unknown
Speed
Unknown
Apparent Right ascension
Unknown
Apparent Declination
Unknown
Sunlit
N/A
Visualization observer readout
Local Sidereal Time
02:09:19
Azimuth
Unknown
Elevation
Unknown
Doppler factor
Unknown
Orbital elements
Apogee altitude
41,124.287 km
Perigee altitude
631.041 km
Semi-major axis
27,255.801 km
Eccentricity
0.74284
Inclination
27.0309°
RAAN
167.1034°
Arg. of periapsis
98.2886°
True anomaly
347.56745°
Mean anomaly
358.7636°
Eccentric anomaly
355.20828°
Mean motion
0.48234 °/min
Orbital period
746.36 mins
BSTAR
0.011315
Loading maneuver chart data...
Computing Atmospheric mass density...
Loading historical data...
Loading historical data...
Loading historical data...
Loading historical data...
Loading historical data...
Loading historical data...
Loading historical data...

Documentation

Showing up to 5 results
|